Location: Zagreb
(45.8000°N, 16.0000°E)
Time: 23:30:23
(UTC+01:00)

Tiangong - Visible Passes

Search period start: 14 March 2026 00:00
Search period end: 24 March 2026 00:00
Orbit: 381 x 390 km, 41.5° (Epoch: 14 March)

Date Brightness Start Highest point End Pass type
(mag) Time Alt. Az. Time Alt. Az. Time Alt. Az.
14 Mar 0.0 04:25:17 18° SSE 04:25:36 18° SSE 04:27:55 10° ESE visible
15 Mar -0.8 05:00:44 18° SW 05:02:32 31° S 05:05:25 10° ESE visible
16 Mar -0.1 04:03:52 22° SE 04:03:52 22° SE 04:05:44 10° ESE visible
16 Mar -1.1 05:36:32 10° WSW 05:39:31 37° S 05:42:30 10° ESE visible
17 Mar -1.2 04:39:09 30° SSW 04:39:56 36° S 04:42:53 10° ESE visible
18 Mar 0.5 03:42:10 17° ESE 03:42:10 17° ESE 03:43:10 10° ESE visible
18 Mar -1.1 05:14:22 13° WSW 05:16:48 35° S 05:19:44 10° ESE visible
19 Mar -1.2 04:17:21 36° S 04:17:21 36° S 04:20:05 10° ESE visible
20 Mar 1.2 03:20:19 10° ESE 03:20:19 10° ESE 03:20:19 10° ESE visible
20 Mar -1.0 04:52:30 21° SW 04:53:51 29° SSW 04:56:40 10° SE visible
21 Mar -0.2 03:55:28 22° SE 03:55:28 22° SE 03:56:59 10° ESE visible
22 Mar -0.7 04:30:40 23° SSW 04:30:40 23° SSW 04:33:12 10° SE visible
23 Mar 0.2 05:05:58 10° SW 05:06:59 11° SSW 05:08:00 10° S visible
